Hourly Data Report for December 02, 2004

TORONTO CITY
ONTARIO

43°40'00.000" N
79°24'00.000" W
112.50 m
6158355
71508
XTO

Download Data

Hourly Data (December 2004)
Hourly Data Report for December 2, 2004
TIME
LST
Temp Definition
°C
Dew Point Definition
°C
Rel Hum Definition
%
Precip. Amount Definition
mm

Wind Dir Definition
10's deg

Wind Spd Definition
km/h
Visibility Definition
km
Stn Press Definition
kPa
Hmdx Definition


Wind Chill Definition


Weather Definition


00:00 4.4 -0.3 71   LegendMM LegendMM LegendMM 99.94     LegendNANA
01:00 4.0 -1.2 69   LegendMM LegendMM LegendMM 99.96     LegendNANA
02:00 3.9 -1.4 68   LegendMM LegendMM LegendMM 100.01     LegendNANA
03:00 3.8 -1.3 69   LegendMM LegendMM LegendMM 100.04     LegendNANA
04:00 3.6 -0.9 72   LegendMM LegendMM LegendMM 100.06     LegendNANA
05:00 3.5 -0.9 73   LegendMM LegendMM LegendMM 100.09     LegendNANA
06:00 3.5 -0.4 76   LegendMM LegendMM LegendMM 100.13     LegendNANA
07:00 3.4 -0.4 76   LegendMM LegendMM LegendMM 100.18     LegendNANA
08:00 3.0 -0.1 80   LegendMM LegendMM LegendMM 100.22     LegendNANA
09:00 3.3 -0.7 75   LegendMM LegendMM LegendMM 100.26     LegendNANA
10:00 3.5 -1.4 70   LegendMM LegendMM LegendMM 100.28     LegendNANA
11:00 3.1 -0.6 77   LegendMM LegendMM LegendMM 100.27     LegendNANA
12:00 3.7 -1.3 70   LegendMM LegendMM LegendMM 100.20     LegendNANA
13:00 3.9 -2.1 65   LegendMM LegendMM LegendMM 100.10     LegendNANA
14:00 4.0 -1.9 65   LegendMM LegendMM LegendMM 100.01     LegendNANA
15:00 3.8 -1.6 68   LegendMM LegendMM LegendMM 99.96     LegendNANA
16:00 3.4 -1.9 68   LegendMM LegendMM LegendMM 99.93     LegendNANA
17:00 3.3 -2.0 68   LegendMM LegendMM LegendMM 99.91     LegendNANA
18:00 3.1 -1.9 70   LegendMM LegendMM LegendMM 99.87     LegendNANA
19:00 3.0 -1.7 71   LegendMM LegendMM LegendMM 99.85     LegendNANA
20:00 3.2 -1.7 70   LegendMM LegendMM LegendMM 99.80     LegendNANA
21:00 2.3 -1.0 79   LegendMM LegendMM LegendMM 99.75     LegendNANA
22:00 1.6 0.5 92   LegendMM LegendMM LegendMM 99.65     LegendNANA
23:00 1.7 -0.5 85   LegendMM LegendMM LegendMM 99.55     LegendNANA

Notes on Data Quality.

Legend

  • E = Estimated
  • M = Missing
  • NA = Not Available*
  • [empty] = Indicates an unobserved value
Date modified: